Location: Cardiff
(53.7833°N, 113.6000°W)
Time: 07:00:03
(UTC+00:00)

RS-15 - Pass Details

Date: 07 December 2023
Orbit: 1893 x 2151 km, 64.8° (Epoch: 21 February)

Event Time Altitude Azimuth Distance (km) Brightness Sun altitude
Rises 05:15:55 0° 233° (SW) 5,647 10.6 -50.4°
Reaches altitude 10° 05:19:25 10° 235° (SW) 4,629 10.0 -50.8°
Enters shadow 05:23:49 27° 240° (WSW) 3,404 9.2 -51.3°
Exits shadow 05:45:33 - 50° (NE) 5,138 10.2 -53.5°
Sets 05:46:29 0° 51° (NE) 5,416 10.4 -53.6°
